Tracking 19644 objects as of 24-Apr-2019
HD Live streaming from Space Station
objects crossing your sky now

ARIANE 44L DEB

Track ARIANE 44L DEB now!


NORAD ID: 33588
Int'l Code: 1991-003R
Perigee: 531.1 km
Apogee: 30,662.2 km
Inclination: 7.2 °
Period: 540.1 minutes
Semi major axis: 21967 km
RCS: 0.1208 m2 (medium)
Launch date: January 15, 1991
Source: France (FR)
Launch site: FRENCH GUIANA (FRGUI)

Note: This is SATELLITE DEBRIS
aabbcc
Your satellite tracking list
Your tracking list is empty




NASA's NSSDC Master Catalog

Two Line Element Set (TLE):
1 33588U 91003R   19112.62554726  .00000043  00000-0  78650-3 0  9997
2 33588   7.1562 156.2809 6858073 266.1357 175.8160  2.66641632143178
Source of the keplerian elements: AFSPC